Time,TemperatureF,DewpointF,PressureIn,WindDirection,WindDirectionDegrees,WindSpeedMPH,WindSpeedGustMPH,Humidity,HourlyPrecipIn,Conditions,Clouds,dailyrainin,SoftwareType,DateUTC
2014-01-02 00:01:00,39.6,31.3,27.93,SE,135,2.0,2.9,72,0.00,,---,0.00,VWS V14.01,2014-01-02 05:01:00,
2014-01-02 00:02:00,39.6,31.3,27.93,SSW,202,3.1,3.1,72,0.00,,---,0.00,VWS V14.01,2014-01-02 05:02:00,
2014-01-02 00:03:00,39.6,31.3,27.93,East,90,3.8,3.8,72,0.00,,---,0.00,VWS V14.01,2014-01-02 05:03:00,
2014-01-02 00:08:00,39.6,31.3,27.93,SSE,158,1.1,1.6,72,0.00,,---,0.00,VWS V14.01,2014-01-02 05:08:00,
2014-01-02 00:13:00,39.6,31.6,27.93,ENE,68,3.6,4.0,73,0.00,,---,0.00,VWS V14.01,2014-01-02 05:13:00,
2014-01-02 00:18:00,39.4,31.5,27.93,SE,135,1.6,3.4,73,0.00,,---,0.00,VWS V14.01,2014-01-02 05:18:00,
2014-01-02 00:23:00,39.4,31.5,27.93,SSE,158,2.0,2.9,73,0.00,,---,0.00,VWS V14.01,2014-01-02 05:23:00,
2014-01-02 00:28:00,39.4,31.8,27.93,East,90,2.0,2.5,74,0.00,,---,0.00,VWS V14.01,2014-01-02 05:28:00,
2014-01-02 00:33:00,39.4,31.8,27.93,ENE,68,1.1,1.6,74,0.00,,---,0.00,VWS V14.01,2014-01-02 05:33:00,
2014-01-02 00:38:00,39.4,31.8,27.93,South,180,1.1,1.1,74,0.00,,---,0.00,VWS V14.01,2014-01-02 05:38:00,
2014-01-02 00:43:00,39.4,32.1,27.93,ENE,68,2.5,2.5,75,0.00,,---,0.00,VWS V14.01,2014-01-02 05:43:00,
2014-01-02 00:49:00,39.4,32.1,27.93,SE,135,1.1,1.1,75,0.00,,---,0.00,VWS V14.01,2014-01-02 05:49:00,
2014-01-02 00:54:00,39.4,32.1,27.93,SSE,158,2.2,2.2,75,0.00,,---,0.00,VWS V14.01,2014-01-02 05:54:00,
2014-01-02 00:59:00,39.4,32.1,27.93,SE,135,0.9,0.9,75,0.00,,---,0.00,VWS V14.01,2014-01-02 05:59:00,
2014-01-02 01:04:00,39.4,32.1,27.93,SSW,202,0.9,0.9,75,0.00,,---,0.00,VWS V14.01,2014-01-02 06:04:00,
2014-01-02 01:09:00,39.4,32.1,27.93,WSW,248,0.0,0.9,75,0.00,,---,0.00,VWS V14.01,2014-01-02 06:09:00,
2014-01-02 01:14:00,39.4,32.1,27.93,WSW,248,0.0,0.0,75,0.00,,---,0.00,VWS V14.01,2014-01-02 06:14:00,
2014-01-02 01:19:00,39.4,32.1,27.93,SW,225,1.3,1.3,75,0.00,,---,0.00,VWS V14.01,2014-01-02 06:19:00,
2014-01-02 01:24:00,39.4,32.1,27.90,ESE,112,0.9,0.9,75,0.00,,---,0.00,VWS V14.01,2014-01-02 06:24:00,
2014-01-02 01:29:00,39.4,32.1,27.90,SE,135,0.0,0.0,75,0.00,,---,0.00,VWS V14.01,2014-01-02 06:29:00,
2014-01-02 01:34:00,39.2,32.6,27.90,ESE,112,0.0,0.0,77,0.00,,---,0.00,VWS V14.01,2014-01-02 06:34:00,
2014-01-02 01:39:00,39.0,32.8,27.90,East,90,0.0,1.1,78,0.00,,---,0.00,VWS V14.01,2014-01-02 06:39:00,
2014-01-02 01:44:00,39.0,33.1,27.90,SE,135,0.0,2.9,79,0.00,,---,0.00,VWS V14.01,2014-01-02 06:44:00,
2014-01-02 01:49:00,38.8,33.2,27.90,SE,135,0.0,0.0,80,0.00,,---,0.00,VWS V14.01,2014-01-02 06:49:00,
2014-01-02 01:54:00,38.8,33.2,27.90,SSW,202,0.0,0.0,80,0.00,,---,0.00,VWS V14.01,2014-01-02 06:54:00,
2014-01-02 01:59:00,38.8,33.2,27.90,SSW,202,0.0,0.9,80,0.00,,---,0.00,VWS V14.01,2014-01-02 06:59:00,
2014-01-02 02:04:00,39.0,33.7,27.90,SE,135,0.0,0.0,81,0.00,,---,0.00,VWS V14.01,2014-01-02 07:04:00,
2014-01-02 02:08:00,39.2,33.9,27.90,ESE,112,0.0,1.3,81,0.00,,---,0.00,VWS V14.01,2014-01-02 07:08:00,
2014-01-02 02:13:00,39.2,34.5,27.90,ESE,112,1.6,2.0,83,0.00,,---,0.00,VWS V14.01,2014-01-02 07:13:00,
2014-01-02 02:18:00,39.2,34.5,27.90,ESE,112,0.0,0.0,83,0.00,,---,0.00,VWS V14.01,2014-01-02 07:18:00,
2014-01-02 02:23:00,39.0,34.3,27.88,SSE,158,0.0,0.0,83,0.00,,---,0.00,VWS V14.01,2014-01-02 07:23:00,
2014-01-02 02:28:00,39.0,34.3,27.88,South,180,1.3,1.6,83,0.00,,---,0.00,VWS V14.01,2014-01-02 07:28:00,
2014-01-02 02:34:00,38.8,34.1,27.88,ESE,112,2.5,2.5,83,0.00,,---,0.00,VWS V14.01,2014-01-02 07:34:00,
2014-01-02 02:39:00,38.8,34.7,27.88,ESE,112,1.1,1.6,85,0.00,,---,0.00,VWS V14.01,2014-01-02 07:39:00,
2014-01-02 02:44:00,38.7,34.5,27.88,SE,135,2.0,3.1,85,0.00,,---,0.00,VWS V14.01,2014-01-02 07:44:00,
2014-01-02 02:49:00,38.5,34.7,27.88,SSE,158,2.0,2.0,86,0.00,,---,0.00,VWS V14.01,2014-01-02 07:49:00,
2014-01-02 02:54:00,38.5,35.0,27.88,East,90,0.0,0.0,87,0.00,,---,0.00,VWS V14.01,2014-01-02 07:54:00,
2014-01-02 02:59:00,38.3,35.1,27.88,East,90,1.3,2.5,88,0.00,,---,0.00,VWS V14.01,2014-01-02 07:59:00,
2014-01-02 03:04:00,38.3,35.1,27.88,South,180,2.0,2.0,88,0.00,,---,0.00,VWS V14.01,2014-01-02 08:04:00,
2014-01-02 03:09:00,38.1,35.2,27.88,South,180,2.5,3.6,89,0.00,,---,0.00,VWS V14.01,2014-01-02 08:09:00,
2014-01-02 03:14:00,38.1,35.2,27.88,SE,135,2.0,2.2,89,0.00,,---,0.00,VWS V14.01,2014-01-02 08:14:00,
2014-01-02 03:19:00,38.1,35.5,27.88,ESE,112,1.6,2.7,90,0.00,,---,0.00,VWS V14.01,2014-01-02 08:19:00,
2014-01-02 03:24:00,37.9,35.3,27.85,WSW,248,2.2,2.2,90,0.00,,---,0.00,VWS V14.01,2014-01-02 08:24:00,
2014-01-02 03:29:00,38.1,35.5,27.85,SSW,202,2.9,2.9,90,0.00,,---,0.00,VWS V14.01,2014-01-02 08:29:00,
2014-01-02 03:34:00,38.3,35.9,27.85,ESE,112,0.0,1.1,91,0.00,,---,0.00,VWS V14.01,2014-01-02 08:34:00,
2014-01-02 03:39:00,38.5,35.8,27.85,SE,135,1.1,1.1,90,0.00,,---,0.00,VWS V14.01,2014-01-02 08:39:00,
2014-01-02 03:44:00,38.5,35.8,27.85,ESE,112,0.0,0.0,90,0.00,,---,0.00,VWS V14.01,2014-01-02 08:44:00,
2014-01-02 03:49:00,38.5,35.8,27.85,East,90,0.0,0.0,90,0.00,,---,0.00,VWS V14.01,2014-01-02 08:49:00,
2014-01-02 03:54:00,38.7,36.0,27.85,ESE,112,0.0,0.0,90,0.00,,---,0.00,VWS V14.01,2014-01-02 08:54:00,
2014-01-02 03:59:00,38.7,36.0,27.85,ESE,112,0.0,0.0,90,0.00,,---,0.00,VWS V14.01,2014-01-02 08:59:00,
2014-01-02 04:04:00,38.7,36.0,27.85,ESE,112,0.0,0.0,90,0.00,,---,0.00,VWS V14.01,2014-01-02 09:04:00,
2014-01-02 04:09:00,38.7,36.0,27.85,SE,135,0.0,0.0,90,0.00,,---,0.00,VWS V14.01,2014-01-02 09:09:00,
2014-01-02 04:15:00,38.7,36.0,27.85,East,90,2.0,2.0,90,0.00,,---,0.00,VWS V14.01,2014-01-02 09:15:00,
2014-01-02 04:20:00,38.7,36.0,27.85,ESE,112,1.1,1.1,90,0.00,,---,0.00,VWS V14.01,2014-01-02 09:20:00,
2014-01-02 04:25:00,38.7,36.5,27.85,ESE,112,1.6,1.6,92,0.00,,---,0.00,VWS V14.01,2014-01-02 09:25:00,
2014-01-02 04:30:00,38.7,36.8,27.85,SE,135,1.1,1.1,93,0.00,,---,0.00,VWS V14.01,2014-01-02 09:30:00,
2014-01-02 04:35:00,38.7,36.8,27.82,ENE,68,0.0,0.0,93,0.00,,---,0.00,VWS V14.01,2014-01-02 09:35:00,
2014-01-02 04:40:00,38.7,36.8,27.82,East,90,0.0,0.0,93,0.00,,---,0.00,VWS V14.01,2014-01-02 09:40:00,
2014-01-02 04:45:00,38.8,37.0,27.82,ESE,112,0.0,0.0,93,0.00,,---,0.00,VWS V14.01,2014-01-02 09:45:00,
2014-01-02 04:50:00,38.7,36.8,27.82,SSE,158,0.0,0.0,93,0.00,,---,0.00,VWS V14.01,2014-01-02 09:50:00,
2014-01-02 04:55:00,38.7,36.8,27.82,East,90,1.3,1.3,93,0.00,,---,0.00,VWS V14.01,2014-01-02 09:55:00,
2014-01-02 05:00:00,38.7,36.8,27.82,SE,135,0.0,0.0,93,0.00,,---,0.00,VWS V14.01,2014-01-02 10:00:00,
2014-01-02 05:05:00,38.5,36.6,27.82,ENE,68,1.6,3.1,93,0.00,,---,0.00,VWS V14.01,2014-01-02 10:05:00,
2014-01-02 05:10:00,38.5,36.9,27.82,ENE,68,1.3,1.6,94,0.00,,---,0.00,VWS V14.01,2014-01-02 10:10:00,
2014-01-02 05:15:00,38.5,36.9,27.82,East,90,0.0,0.0,94,0.00,,---,0.00,VWS V14.01,2014-01-02 10:15:00,
2014-01-02 05:20:00,38.7,37.1,27.82,ESE,112,1.1,1.1,94,0.00,,---,0.00,VWS V14.01,2014-01-02 10:20:00,
2014-01-02 05:25:00,38.7,37.1,27.82,SSE,158,0.0,0.9,94,0.00,,---,0.00,VWS V14.01,2014-01-02 10:25:00,
2014-01-02 05:30:00,38.8,37.5,27.82,ESE,112,0.0,0.0,95,0.00,,---,0.00,VWS V14.01,2014-01-02 10:30:00,
2014-01-02 05:35:00,38.8,37.5,27.79,SSW,202,0.9,0.9,95,0.00,,---,0.00,VWS V14.01,2014-01-02 10:35:00,
2014-01-02 05:40:00,38.8,37.5,27.79,SSW,202,0.0,0.0,95,0.00,,---,0.00,VWS V14.01,2014-01-02 10:40:00,
2014-01-02 05:45:00,38.8,37.5,27.79,SSE,158,0.0,2.5,95,0.00,,---,0.00,VWS V14.01,2014-01-02 10:45:00,
2014-01-02 05:50:00,38.7,37.3,27.79,SE,135,0.0,0.0,95,0.00,,---,0.00,VWS V14.01,2014-01-02 10:50:00,
2014-01-02 05:56:00,38.7,37.3,27.79,SE,135,1.6,1.6,95,0.00,,---,0.00,VWS V14.01,2014-01-02 10:56:00,
2014-01-02 06:01:00,38.8,37.5,27.79,WNW,292,0.0,0.0,95,0.00,,---,0.00,VWS V14.01,2014-01-02 11:01:00,
2014-01-02 06:06:00,38.8,37.8,27.82,NNW,338,0.0,0.0,96,0.00,,---,0.00,VWS V14.01,2014-01-02 11:06:00,
2014-01-02 06:11:00,38.8,37.8,27.82,NE,45,0.0,0.0,96,0.00,,---,0.00,VWS V14.01,2014-01-02 11:11:00,
2014-01-02 06:16:00,38.8,37.8,27.82,NE,45,0.0,0.0,96,0.00,,---,0.00,VWS V14.01,2014-01-02 11:16:00,
2014-01-02 06:21:00,38.8,37.8,27.79,NE,45,0.0,0.0,96,0.00,,---,0.00,VWS V14.01,2014-01-02 11:21:00,
2014-01-02 06:26:00,38.8,37.8,27.79,NE,45,0.0,0.0,96,0.00,,---,0.00,VWS V14.01,2014-01-02 11:26:00,
2014-01-02 06:31:00,39.2,37.9,27.79,WSW,248,0.0,0.0,95,0.00,,---,0.00,VWS V14.01,2014-01-02 11:31:00,
2014-01-02 06:36:00,39.4,38.1,27.79,SSW,202,0.0,0.0,95,0.00,,---,0.00,VWS V14.01,2014-01-02 11:36:00,
2014-01-02 06:41:00,39.6,38.2,27.79,SSW,202,0.0,0.0,95,0.00,,---,0.00,VWS V14.01,2014-01-02 11:41:00,
2014-01-02 06:46:00,39.7,38.4,27.79,SSW,202,0.0,0.0,95,0.00,,---,0.00,VWS V14.01,2014-01-02 11:46:00,
2014-01-02 06:51:00,39.7,38.7,27.79,SSW,202,0.0,0.0,96,0.00,,---,0.00,VWS V14.01,2014-01-02 11:51:00,
2014-01-02 06:56:00,39.9,38.9,27.79,SW,225,0.0,0.0,96,0.00,,---,0.00,VWS V14.01,2014-01-02 11:56:00,
2014-01-02 07:01:00,40.1,39.0,27.79,SW,225,0.0,0.0,96,0.00,,---,0.00,VWS V14.01,2014-01-02 12:01:00,
2014-01-02 07:06:00,40.3,39.2,27.79,SSW,202,0.0,1.6,96,0.00,,---,0.00,VWS V14.01,2014-01-02 12:06:00,
2014-01-02 07:11:00,40.5,39.4,27.79,WSW,248,0.0,0.0,96,0.00,,---,0.00,VWS V14.01,2014-01-02 12:11:00,
2014-01-02 07:16:00,40.5,39.4,27.79,SW,225,0.0,0.0,96,0.00,,---,0.00,VWS V14.01,2014-01-02 12:16:00,
2014-01-02 07:21:00,40.6,39.6,27.79,WSW,248,0.0,0.0,96,0.00,,---,0.00,VWS V14.01,2014-01-02 12:21:00,
2014-01-02 07:26:00,40.8,40.0,27.79,SSW,202,1.6,1.6,97,0.00,,---,0.00,VWS V14.01,2014-01-02 12:26:00,
2014-01-02 07:31:00,40.8,40.0,27.79,WNW,292,0.0,0.0,97,0.00,,---,0.00,VWS V14.01,2014-01-02 12:31:00,
2014-01-02 07:36:00,41.0,40.0,27.79,SSW,202,0.0,1.1,96,0.00,,---,0.00,VWS V14.01,2014-01-02 12:36:00,
2014-01-02 07:42:00,41.0,40.0,27.79,ESE,112,0.0,0.0,96,0.00,,---,0.00,VWS V14.01,2014-01-02 12:42:00,
2014-01-02 07:47:00,41.0,40.0,27.79,SW,225,0.0,0.9,96,0.00,,---,0.00,VWS V14.01,2014-01-02 12:47:00,
2014-01-02 07:52:00,41.0,40.0,27.76,WSW,248,0.0,0.0,96,0.00,,---,0.00,VWS V14.01,2014-01-02 12:52:00,
2014-01-02 07:57:00,41.0,40.0,27.76,SSW,202,1.1,1.1,96,0.00,,---,0.00,VWS V14.01,2014-01-02 12:57:00,
2014-01-02 08:02:00,41.0,40.0,27.76,West,270,0.0,0.0,96,0.00,,---,0.00,VWS V14.01,2014-01-02 13:02:00,
2014-01-02 08:07:00,41.2,40.4,27.76,SSW,202,1.3,1.3,97,0.00,,---,0.00,VWS V14.01,2014-01-02 13:07:00,
2014-01-02 08:12:00,41.2,40.4,27.76,SE,135,0.0,2.5,97,0.00,,---,0.00,VWS V14.01,2014-01-02 13:12:00,
2014-01-02 08:17:00,41.2,40.4,27.76,SSE,158,0.0,0.0,97,0.00,,---,0.00,VWS V14.01,2014-01-02 13:17:00,
2014-01-02 08:22:00,41.2,40.4,27.76,South,180,2.5,2.5,97,0.00,,---,0.00,VWS V14.01,2014-01-02 13:22:00,
2014-01-02 08:27:00,41.2,40.4,27.76,WSW,248,2.0,2.0,97,0.00,,---,0.00,VWS V14.01,2014-01-02 13:27:00,
2014-01-02 08:32:00,41.4,40.6,27.76,SSW,202,0.0,1.6,97,0.00,,---,0.00,VWS V14.01,2014-01-02 13:32:00,
2014-01-02 08:37:00,41.4,40.6,27.76,SSE,158,2.7,2.7,97,0.00,,---,0.00,VWS V14.01,2014-01-02 13:37:00,
2014-01-02 08:42:00,41.4,40.6,27.76,WSW,248,0.9,2.0,97,0.00,,---,0.00,VWS V14.01,2014-01-02 13:42:00,
2014-01-02 08:47:00,41.4,40.6,27.76,SE,135,0.9,0.9,97,0.00,,---,0.00,VWS V14.01,2014-01-02 13:47:00,
2014-01-02 08:52:00,41.5,40.8,27.76,ENE,68,0.0,0.0,97,0.00,,---,0.00,VWS V14.01,2014-01-02 13:52:00,
2014-01-02 08:57:00,41.5,40.8,27.76,SSE,158,1.6,1.6,97,0.00,,---,0.00,VWS V14.01,2014-01-02 13:57:00,
2014-01-02 09:02:00,41.5,40.8,27.76,SE,135,0.0,0.0,97,0.00,,---,0.00,VWS V14.01,2014-01-02 14:02:00,
2014-01-02 09:07:00,41.7,40.9,27.76,South,180,1.6,1.6,97,0.00,,---,0.00,VWS V14.01,2014-01-02 14:07:00,
2014-01-02 09:12:00,41.7,41.2,27.76,SSW,202,0.0,0.0,98,0.00,,---,0.00,VWS V14.01,2014-01-02 14:12:00,
2014-01-02 09:17:00,41.7,41.2,27.76,ENE,68,0.0,0.0,98,0.00,,---,0.00,VWS V14.01,2014-01-02 14:17:00,
2014-01-02 09:22:00,41.9,41.4,27.73,East,90,0.0,1.3,98,0.00,,---,0.00,VWS V14.01,2014-01-02 14:22:00,
2014-01-02 09:27:00,41.9,41.4,27.73,SSW,202,0.9,2.0,98,0.00,,---,0.00,VWS V14.01,2014-01-02 14:27:00,
2014-01-02 09:32:00,42.1,41.6,27.73,SSW,202,2.2,2.2,98,0.00,,---,0.00,VWS V14.01,2014-01-02 14:32:00,
2014-01-02 09:37:00,42.1,41.6,27.73,SE,135,0.0,0.0,98,0.00,,---,0.00,VWS V14.01,2014-01-02 14:37:00,
2014-01-02 09:43:00,42.3,41.7,27.73,SSW,202,1.6,1.6,98,0.00,,---,0.00,VWS V14.01,2014-01-02 14:43:00,
2014-01-02 09:48:00,42.3,41.7,27.73,SSW,202,0.9,0.9,98,0.00,,---,0.00,VWS V14.01,2014-01-02 14:48:00,
2014-01-02 09:53:00,42.4,41.9,27.73,NE,45,0.0,0.0,98,0.00,,---,0.00,VWS V14.01,2014-01-02 14:53:00,
2014-01-02 09:58:00,42.4,41.9,27.73,NE,45,0.9,0.9,98,0.00,,---,0.00,VWS V14.01,2014-01-02 14:58:00,
2014-01-02 10:03:00,42.4,41.9,27.73,WSW,248,0.0,0.0,98,0.00,,---,0.00,VWS V14.01,2014-01-02 15:03:00,
2014-01-02 10:08:00,42.6,42.1,27.73,SSW,202,0.0,0.0,98,0.00,,---,0.00,VWS V14.01,2014-01-02 15:08:00,
2014-01-02 10:13:00,42.6,42.1,27.73,ENE,68,0.9,1.1,98,0.00,,---,0.00,VWS V14.01,2014-01-02 15:13:00,
2014-01-02 10:18:00,42.8,42.3,27.73,ESE,112,0.0,0.0,98,0.00,,---,0.00,VWS V14.01,2014-01-02 15:18:00,
2014-01-02 10:23:00,43.0,42.5,27.73,WNW,292,1.6,1.6,98,0.00,,---,0.00,VWS V14.01,2014-01-02 15:23:00,
2014-01-02 10:28:00,43.0,42.5,27.73,WSW,248,0.0,1.3,98,0.00,,---,0.00,VWS V14.01,2014-01-02 15:28:00,
2014-01-02 10:33:00,43.2,42.6,27.73,SSE,158,0.9,2.0,98,0.00,,---,0.00,VWS V14.01,2014-01-02 15:33:00,
2014-01-02 10:38:00,43.2,42.6,27.73,NE,45,0.0,1.1,98,0.00,,---,0.00,VWS V14.01,2014-01-02 15:38:00,
2014-01-02 10:43:00,43.2,42.6,27.73,WNW,292,0.9,1.1,98,0.00,,---,0.00,VWS V14.01,2014-01-02 15:43:00,
2014-01-02 10:48:00,43.2,42.6,27.73,SW,225,0.9,2.2,98,0.00,,---,0.00,VWS V14.01,2014-01-02 15:48:00,
2014-01-02 10:53:00,43.3,42.8,27.70,SSW,202,1.1,1.3,98,0.00,,---,0.00,VWS V14.01,2014-01-02 15:53:00,
2014-01-02 10:58:00,43.3,42.8,27.70,SSW,202,0.0,0.0,98,0.00,,---,0.00,VWS V14.01,2014-01-02 15:58:00,
2014-01-02 11:03:00,43.5,43.0,27.70,SE,135,1.3,1.3,98,0.00,,---,0.00,VWS V14.01,2014-01-02 16:03:00,
2014-01-02 11:08:00,43.7,43.2,27.70,SSW,202,0.9,1.3,98,0.00,,---,0.00,VWS V14.01,2014-01-02 16:08:00,
2014-01-02 11:13:00,43.7,43.2,27.70,West,270,1.1,1.1,98,0.00,,---,0.00,VWS V14.01,2014-01-02 16:13:00,
2014-01-02 11:18:00,43.9,43.3,27.70,West,270,1.3,1.3,98,0.00,,---,0.00,VWS V14.01,2014-01-02 16:18:00,
2014-01-02 11:23:00,44.1,43.5,27.70,West,270,2.5,3.6,98,0.00,,---,0.00,VWS V14.01,2014-01-02 16:23:00,
2014-01-02 11:29:00,44.1,43.5,27.70,SSW,202,1.6,4.0,98,0.00,,---,0.00,VWS V14.01,2014-01-02 16:29:00,
2014-01-02 11:34:00,44.2,43.7,27.70,NW,315,3.8,3.8,98,0.00,,---,0.00,VWS V14.01,2014-01-02 16:34:00,
2014-01-02 11:39:00,44.2,43.7,27.70,SW,225,3.4,3.4,98,0.00,,---,0.00,VWS V14.01,2014-01-02 16:39:00,
2014-01-02 11:44:00,44.2,43.7,27.70,NE,45,2.7,2.7,98,0.00,,---,0.00,VWS V14.01,2014-01-02 16:44:00,
2014-01-02 11:49:00,44.2,43.7,27.70,ESE,112,1.3,1.6,98,0.00,,---,0.00,VWS V14.01,2014-01-02 16:49:00,
2014-01-02 11:54:00,44.2,43.7,27.70,SW,225,0.9,0.9,98,0.00,,---,0.00,VWS V14.01,2014-01-02 16:54:00,
2014-01-02 11:59:00,44.2,43.7,27.70,ENE,68,2.0,2.0,98,0.00,,---,0.00,VWS V14.01,2014-01-02 16:59:00,
2014-01-02 12:04:00,44.2,43.7,27.70,SSW,202,2.7,2.7,98,0.00,,---,0.00,VWS V14.01,2014-01-02 17:04:00,
2014-01-02 12:09:00,44.1,43.5,27.70,WSW,248,2.7,2.7,98,0.00,,---,0.00,VWS V14.01,2014-01-02 17:09:00,
2014-01-02 12:14:00,44.1,43.5,27.70,SSE,158,1.3,1.3,98,0.00,,---,0.00,VWS V14.01,2014-01-02 17:14:00,
2014-01-02 12:19:00,44.1,43.5,27.70,WSW,248,2.0,2.0,98,0.00,,---,0.00,VWS V14.01,2014-01-02 17:19:00,
2014-01-02 12:24:00,44.1,43.5,27.70,NNW,338,1.3,2.9,98,0.00,,---,0.00,VWS V14.01,2014-01-02 17:24:00,
2014-01-02 12:29:00,44.1,43.5,27.70,NNW,338,1.3,1.3,98,0.00,,---,0.00,VWS V14.01,2014-01-02 17:29:00,
2014-01-02 12:34:00,43.5,43.0,27.70,SSE,158,2.7,2.7,98,0.00,,---,0.00,VWS V14.01,2014-01-02 17:34:00,
2014-01-02 12:39:00,42.3,41.5,27.70,SSE,158,3.8,3.8,97,0.00,,---,0.00,VWS V14.01,2014-01-02 17:39:00,
2014-01-02 12:44:00,41.2,39.9,27.70,East,90,4.3,4.3,95,0.00,,---,0.00,VWS V14.01,2014-01-02 17:44:00,
2014-01-02 12:49:00,40.6,39.3,27.70,WNW,292,1.6,1.6,95,0.00,,---,0.00,VWS V14.01,2014-01-02 17:49:00,
2014-01-02 12:54:00,40.3,39.0,27.70,NE,45,0.9,0.9,95,0.00,,---,0.00,VWS V14.01,2014-01-02 17:54:00,
2014-01-02 12:59:00,40.3,39.0,27.70,East,90,0.9,1.3,95,0.00,,---,0.00,VWS V14.01,2014-01-02 17:59:00,
2014-01-02 13:04:00,39.9,38.6,27.70,WSW,248,2.0,4.9,95,0.00,,---,0.00,VWS V14.01,2014-01-02 18:04:00,
2014-01-02 13:09:00,39.7,38.4,27.70,East,90,1.6,3.6,95,0.00,,---,0.00,VWS V14.01,2014-01-02 18:09:00,
2014-01-02 13:15:00,39.4,37.5,27.70,SW,225,3.1,3.1,93,0.00,,---,0.00,VWS V14.01,2014-01-02 18:15:00,
2014-01-02 13:20:00,39.4,37.5,27.70,WNW,292,3.8,3.8,93,0.00,,---,0.00,VWS V14.01,2014-01-02 18:20:00,
2014-01-02 13:25:00,39.4,37.2,27.70,NE,45,2.2,2.2,92,0.00,,---,0.00,VWS V14.01,2014-01-02 18:25:00,
2014-01-02 13:30:00,39.2,37.1,27.70,WSW,248,3.6,3.6,92,0.00,,---,0.00,VWS V14.01,2014-01-02 18:30:00,
2014-01-02 13:35:00,38.8,36.4,27.70,NE,45,4.9,4.9,91,0.00,,---,0.00,VWS V14.01,2014-01-02 18:35:00,
2014-01-02 13:40:00,38.7,36.0,27.70,ENE,68,4.7,4.7,90,0.00,,---,0.00,VWS V14.01,2014-01-02 18:40:00,
2014-01-02 13:45:00,38.5,35.5,27.70,SE,135,2.0,2.5,89,0.00,,---,0.00,VWS V14.01,2014-01-02 18:45:00,
2014-01-02 13:50:00,38.7,35.4,27.70,North,0,4.7,4.7,88,0.00,,---,0.00,VWS V14.01,2014-01-02 18:50:00,
2014-01-02 13:55:00,38.5,35.0,27.70,NE,45,4.7,4.7,87,0.00,,---,0.00,VWS V14.01,2014-01-02 18:55:00,
2014-01-02 14:00:00,37.8,33.7,27.70,East,90,3.8,3.8,85,0.00,,---,0.00,VWS V14.01,2014-01-02 19:00:00,
2014-01-02 14:05:00,37.6,32.6,27.73,SSW,202,2.9,3.4,82,0.00,,---,0.00,VWS V14.01,2014-01-02 19:05:00,
2014-01-02 14:10:00,37.2,32.8,27.73,SSE,158,4.0,4.0,84,0.00,,---,0.00,VWS V14.01,2014-01-02 19:10:00,
2014-01-02 14:15:00,36.3,31.4,27.73,East,90,2.9,2.9,82,0.00,,---,0.00,VWS V14.01,2014-01-02 19:15:00,
2014-01-02 14:20:00,36.0,31.0,27.73,SE,135,4.0,4.0,82,0.00,,---,0.00,VWS V14.01,2014-01-02 19:20:00,
2014-01-02 14:25:00,35.8,31.4,27.73,East,90,3.4,4.7,84,0.00,,---,0.00,VWS V14.01,2014-01-02 19:25:00,
2014-01-02 14:30:00,35.4,31.4,27.73,ENE,68,2.5,2.7,85,0.00,,---,0.00,VWS V14.01,2014-01-02 19:30:00,
2014-01-02 14:35:00,35.4,31.7,27.73,SE,135,0.9,3.1,86,0.00,,---,0.00,VWS V14.01,2014-01-02 19:35:00,
2014-01-02 14:40:00,34.9,31.1,27.73,WSW,248,2.9,4.3,86,0.00,,---,0.00,VWS V14.01,2014-01-02 19:40:00,
2014-01-02 14:45:00,34.5,30.8,27.73,SW,225,4.3,4.3,86,0.00,,---,0.00,VWS V14.01,2014-01-02 19:45:00,
2014-01-02 14:50:00,33.8,29.8,27.76,ESE,112,3.1,3.8,85,0.00,,---,0.00,VWS V14.01,2014-01-02 19:50:00,
2014-01-02 14:55:00,33.3,29.0,27.76,WNW,292,3.6,4.0,84,0.00,,---,0.00,VWS V14.01,2014-01-02 19:55:00,
2014-01-02 15:00:00,32.7,27.5,27.76,ENE,68,3.6,6.5,81,0.00,,---,0.00,VWS V14.01,2014-01-02 20:00:00,
2014-01-02 15:05:00,32.2,27.0,27.76,NE,45,2.7,3.4,81,0.00,,---,0.00,VWS V14.01,2014-01-02 20:05:00,
2014-01-02 15:10:00,31.8,27.0,27.76,SE,135,2.2,7.4,82,0.00,,---,0.00,VWS V14.01,2014-01-02 20:10:00,
2014-01-02 15:15:00,31.6,27.1,27.76,SSE,158,1.3,4.7,83,0.00,,---,0.00,VWS V14.01,2014-01-02 20:15:00,
2014-01-02 15:20:00,31.5,27.2,27.76,SW,225,1.6,1.6,84,0.00,,---,0.00,VWS V14.01,2014-01-02 20:20:00,
2014-01-02 15:26:00,31.3,27.3,27.76,East,90,2.0,2.0,85,0.00,,---,0.00,VWS V14.01,2014-01-02 20:26:00,
2014-01-02 15:31:00,31.1,27.4,27.76,West,270,0.0,0.0,86,0.00,,---,0.00,VWS V14.01,2014-01-02 20:31:00,
2014-01-02 15:36:00,31.1,27.4,27.76,NNW,338,2.5,2.7,86,0.00,,---,0.00,VWS V14.01,2014-01-02 20:36:00,
2014-01-02 15:41:00,30.7,27.1,27.79,ESE,112,2.5,2.5,86,0.00,,---,0.00,VWS V14.01,2014-01-02 20:41:00,
2014-01-02 15:46:00,30.6,27.2,27.79,NW,315,2.7,2.7,87,0.00,,---,0.00,VWS V14.01,2014-01-02 20:46:00,
2014-01-02 15:51:00,30.0,26.9,27.79,SE,135,0.0,3.1,88,0.00,,---,0.00,VWS V14.01,2014-01-02 20:51:00,
2014-01-02 15:56:00,29.8,26.7,27.79,SSE,158,3.1,3.1,88,0.00,,---,0.00,VWS V14.01,2014-01-02 20:56:00,
2014-01-02 16:01:00,29.5,26.4,27.79,SE,135,3.1,3.6,88,0.00,,---,0.00,VWS V14.01,2014-01-02 21:01:00,
2014-01-02 16:06:00,28.6,24.6,27.79,NW,315,2.0,2.0,85,0.00,,---,0.00,VWS V14.01,2014-01-02 21:06:00,
2014-01-02 16:11:00,28.6,24.4,27.79,SW,225,2.9,3.4,84,0.00,,---,0.00,VWS V14.01,2014-01-02 21:11:00,
2014-01-02 16:16:00,28.0,24.1,27.79,WSW,248,6.3,6.3,85,0.00,,---,0.00,VWS V14.01,2014-01-02 21:16:00,
2014-01-02 16:21:00,27.9,24.0,27.79,South,180,2.5,3.1,85,0.00,,---,0.00,VWS V14.01,2014-01-02 21:21:00,
2014-01-02 16:26:00,27.3,23.4,27.79,ENE,68,1.6,2.2,85,0.00,,---,0.00,VWS V14.01,2014-01-02 21:26:00,
2014-01-02 16:31:00,27.1,23.2,27.79,SE,135,2.5,3.8,85,0.00,,---,0.00,VWS V14.01,2014-01-02 21:31:00,
2014-01-02 16:36:00,27.0,23.1,27.82,SSW,202,3.8,3.8,85,0.00,,---,0.00,VWS V14.01,2014-01-02 21:36:00,
2014-01-02 16:41:00,26.8,23.2,27.82,North,0,4.0,4.0,86,0.00,,---,0.00,VWS V14.01,2014-01-02 21:41:00,
2014-01-02 16:46:00,26.4,23.1,27.82,NW,315,3.6,3.6,87,0.00,,---,0.00,VWS V14.01,2014-01-02 21:46:00,
2014-01-02 16:52:00,25.9,22.5,27.82,ENE,68,5.4,5.4,87,0.00,,---,0.00,VWS V14.01,2014-01-02 21:52:00,
2014-01-02 16:57:00,25.9,22.5,27.82,SE,135,3.4,3.4,87,0.00,,---,0.00,VWS V14.01,2014-01-02 21:57:00,
2014-01-02 17:02:00,25.9,22.8,27.82,West,270,2.0,2.0,88,0.00,,---,0.00,VWS V14.01,2014-01-02 22:02:00,
2014-01-02 17:07:00,25.5,22.2,27.82,ESE,112,2.5,3.4,87,0.00,,---,0.00,VWS V14.01,2014-01-02 22:07:00,
2014-01-02 17:12:00,25.3,21.8,27.82,ESE,112,2.9,2.9,86,0.00,,---,0.00,VWS V14.01,2014-01-02 22:12:00,
2014-01-02 17:17:00,24.8,20.1,27.82,NNE,22,6.3,6.3,82,0.00,,---,0.00,VWS V14.01,2014-01-02 22:17:00,
2014-01-02 17:22:00,24.4,18.9,27.85,SSE,158,2.5,3.1,79,0.00,,---,0.00,VWS V14.01,2014-01-02 22:22:00,
2014-01-02 17:27:00,24.1,17.9,27.85,East,90,3.6,4.0,77,0.00,,---,0.00,VWS V14.01,2014-01-02 22:27:00,
2014-01-02 17:32:00,24.1,18.2,27.85,WSW,248,6.3,6.3,78,0.00,,---,0.00,VWS V14.01,2014-01-02 22:32:00,
2014-01-02 17:37:00,23.9,18.4,27.85,ENE,68,2.2,6.3,79,0.00,,---,0.00,VWS V14.01,2014-01-02 22:37:00,
2014-01-02 17:42:00,23.7,18.2,27.85,WSW,248,1.6,3.8,79,0.00,,---,0.00,VWS V14.01,2014-01-02 22:42:00,
2014-01-02 17:47:00,23.5,18.0,27.85,South,180,2.0,4.0,79,0.00,,---,0.00,VWS V14.01,2014-01-02 22:47:00,
2014-01-02 17:52:00,23.5,18.3,27.85,North,0,3.8,3.8,80,0.00,,---,0.00,VWS V14.01,2014-01-02 22:52:00,
2014-01-02 17:57:00,23.4,18.1,27.85,NW,315,4.3,4.3,80,0.00,,---,0.00,VWS V14.01,2014-01-02 22:57:00,
2014-01-02 18:02:00,23.2,17.6,27.85,WSW,248,3.4,3.4,79,0.00,,---,0.00,VWS V14.01,2014-01-02 23:02:00,
2014-01-02 18:07:00,22.8,17.3,27.85,East,90,2.7,5.4,79,0.00,,---,0.00,VWS V14.01,2014-01-02 23:07:00,
2014-01-02 18:12:00,22.5,16.0,27.85,SSE,158,4.0,4.9,76,0.00,,---,0.00,VWS V14.01,2014-01-02 23:12:00,
2014-01-02 18:17:00,22.3,15.6,27.85,WSW,248,4.9,5.6,75,0.00,,---,0.00,VWS V14.01,2014-01-02 23:17:00,
2014-01-02 18:22:00,22.3,15.6,27.85,ESE,112,3.8,3.8,75,0.00,,---,0.00,VWS V14.01,2014-01-02 23:22:00,
2014-01-02 18:27:00,21.9,14.6,27.85,North,0,3.4,5.4,73,0.00,,---,0.00,VWS V14.01,2014-01-02 23:27:00,
2014-01-02 18:33:00,21.9,14.6,27.85,ENE,68,2.5,2.5,73,0.00,,---,0.00,VWS V14.01,2014-01-02 23:33:00,
2014-01-02 18:38:00,21.7,14.1,27.88,East,90,4.3,6.3,72,0.00,,---,0.00,VWS V14.01,2014-01-02 23:38:00,
2014-01-02 18:43:00,21.6,13.9,27.88,East,90,2.7,3.4,72,0.00,,---,0.00,VWS V14.01,2014-01-02 23:43:00,
2014-01-02 18:48:00,21.4,13.4,27.88,SSE,158,2.7,5.6,71,0.00,,---,0.00,VWS V14.01,2014-01-02 23:48:00,
2014-01-02 18:53:00,21.4,13.4,27.88,SE,135,2.9,3.4,71,0.00,,---,0.00,VWS V14.01,2014-01-02 23:53:00,
2014-01-02 18:58:00,21.2,13.3,27.88,SSW,202,3.1,3.8,71,0.00,,---,0.00,VWS V14.01,2014-01-02 23:58:00,
2014-01-02 19:03:00,21.0,13.4,27.88,NNE,22,1.6,2.5,72,0.00,,---,0.00,VWS V14.01,2014-01-03 00:03:00,
2014-01-02 19:08:00,21.2,13.9,27.90,NNW,338,2.5,4.0,73,0.00,,---,0.00,VWS V14.01,2014-01-03 00:08:00,
2014-01-02 19:13:00,21.0,13.7,27.90,NE,45,5.6,5.6,73,0.00,,---,0.00,VWS V14.01,2014-01-03 00:13:00,
2014-01-02 19:18:00,21.0,14.4,27.90,ENE,68,2.2,2.7,75,0.00,,---,0.00,VWS V14.01,2014-01-03 00:18:00,
2014-01-02 19:23:00,20.8,14.5,27.90,NW,315,3.6,3.6,76,0.00,,---,0.00,VWS V14.01,2014-01-03 00:23:00,
2014-01-02 19:28:00,20.7,14.9,27.90,North,0,2.5,2.5,78,0.00,,---,0.00,VWS V14.01,2014-01-03 00:28:00,
2014-01-02 19:33:00,20.5,15.0,27.90,SSW,202,2.7,2.7,79,0.00,,---,0.00,VWS V14.01,2014-01-03 00:33:00,
2014-01-02 19:38:00,20.5,15.3,27.90,SE,135,2.0,2.9,80,0.00,,---,0.00,VWS V14.01,2014-01-03 00:38:00,
2014-01-02 19:43:00,20.3,15.1,27.90,WNW,292,2.2,2.7,80,0.00,,---,0.00,VWS V14.01,2014-01-03 00:43:00,
2014-01-02 19:48:00,19.9,15.1,27.90,NNW,338,2.7,3.1,81,0.00,,---,0.00,VWS V14.01,2014-01-03 00:48:00,
2014-01-02 19:53:00,19.9,15.1,27.93,North,0,3.6,3.8,81,0.00,,---,0.00,VWS V14.01,2014-01-03 00:53:00,
2014-01-02 19:58:00,19.8,15.2,27.93,SSE,158,1.3,2.7,82,0.00,,---,0.00,VWS V14.01,2014-01-03 00:58:00,
2014-01-02 20:03:00,19.8,15.4,27.93,ENE,68,2.0,2.9,83,0.00,,---,0.00,VWS V14.01,2014-01-03 01:03:00,
2014-01-02 20:08:00,19.6,15.0,27.93,SSW,202,1.1,3.6,82,0.00,,---,0.00,VWS V14.01,2014-01-03 01:08:00,
2014-01-02 20:14:00,19.6,15.3,27.93,ENE,68,2.5,3.8,83,0.00,,---,0.00,VWS V14.01,2014-01-03 01:14:00,
2014-01-02 20:19:00,19.4,15.4,27.93,West,270,2.7,2.7,84,0.00,,---,0.00,VWS V14.01,2014-01-03 01:19:00,
2014-01-02 20:24:00,19.4,15.4,27.93,NE,45,0.0,0.9,84,0.00,,---,0.00,VWS V14.01,2014-01-03 01:24:00,
2014-01-02 20:29:00,19.2,15.2,27.93,WNW,292,0.0,0.9,84,0.00,,---,0.00,VWS V14.01,2014-01-03 01:29:00,
2014-01-02 20:34:00,19.0,15.0,27.93,SSW,202,2.7,2.7,84,0.00,,---,0.00,VWS V14.01,2014-01-03 01:34:00,
2014-01-02 20:39:00,18.7,14.7,27.93,North,0,2.2,3.8,84,0.00,,---,0.00,VWS V14.01,2014-01-03 01:39:00,
2014-01-02 20:44:00,18.5,14.5,27.93,WNW,292,2.5,4.0,84,0.00,,---,0.00,VWS V14.01,2014-01-03 01:44:00,
2014-01-02 20:49:00,18.1,13.3,27.93,WNW,292,5.6,5.6,81,0.00,,---,0.00,VWS V14.01,2014-01-03 01:49:00,
2014-01-02 20:54:00,18.1,13.0,27.93,SE,135,4.9,4.9,80,0.00,,---,0.00,VWS V14.01,2014-01-03 01:54:00,
2014-01-02 20:59:00,18.1,12.2,27.93,East,90,2.5,2.5,77,0.00,,---,0.00,VWS V14.01,2014-01-03 01:59:00,
2014-01-02 21:04:00,18.1,11.6,27.93,NE,45,2.5,2.5,75,0.00,,---,0.00,VWS V14.01,2014-01-03 02:04:00,
2014-01-02 21:09:00,18.1,11.3,27.96,SW,225,2.0,6.9,74,0.00,,---,0.00,VWS V14.01,2014-01-03 02:09:00,
2014-01-02 21:14:00,18.0,10.5,27.96,NE,45,3.4,3.4,72,0.00,,---,0.00,VWS V14.01,2014-01-03 02:14:00,
2014-01-02 21:19:00,18.0,10.5,27.96,ESE,112,3.6,3.6,72,0.00,,---,0.00,VWS V14.01,2014-01-03 02:19:00,
2014-01-02 21:24:00,18.0,10.5,27.96,WNW,292,2.7,3.4,72,0.00,,---,0.00,VWS V14.01,2014-01-03 02:24:00,
2014-01-02 21:29:00,18.0,10.2,27.96,ESE,112,1.3,1.3,71,0.00,,---,0.00,VWS V14.01,2014-01-03 02:29:00,
2014-01-02 21:34:00,18.0,10.2,27.96,SE,135,2.9,2.9,71,0.00,,---,0.00,VWS V14.01,2014-01-03 02:34:00,
2014-01-02 21:39:00,17.8,10.6,27.96,NNE,22,3.6,3.6,73,0.00,,---,0.00,VWS V14.01,2014-01-03 02:39:00,
2014-01-02 21:44:00,17.6,11.3,27.96,NNW,338,3.4,3.4,76,0.00,,---,0.00,VWS V14.01,2014-01-03 02:44:00,
2014-01-02 21:49:00,17.6,11.9,27.96,WNW,292,3.6,3.6,78,0.00,,---,0.00,VWS V14.01,2014-01-03 02:49:00,
2014-01-02 21:54:00,17.4,11.2,27.96,SE,135,1.3,3.6,76,0.00,,---,0.00,VWS V14.01,2014-01-03 02:54:00,
2014-01-02 21:59:00,17.1,9.3,27.96,ENE,68,5.6,5.6,71,0.00,,---,0.00,VWS V14.01,2014-01-03 02:59:00,
2014-01-02 22:05:00,16.9,8.5,27.96,WNW,292,2.2,2.7,69,0.00,,---,0.00,VWS V14.01,2014-01-03 03:05:00,
2014-01-02 22:10:00,16.7,8.6,27.96,WSW,248,2.7,2.7,70,0.00,,---,0.00,VWS V14.01,2014-01-03 03:10:00,
2014-01-02 22:15:00,16.7,9.3,27.96,ESE,112,0.9,0.9,72,0.00,,---,0.00,VWS V14.01,2014-01-03 03:15:00,
2014-01-02 22:20:00,16.5,9.4,27.96,SSE,158,3.1,7.4,73,0.00,,---,0.00,VWS V14.01,2014-01-03 03:20:00,
2014-01-02 22:25:00,16.3,9.5,27.96,ENE,68,5.4,5.4,74,0.00,,---,0.00,VWS V14.01,2014-01-03 03:25:00,
2014-01-02 22:30:00,16.2,8.1,27.96,ESE,112,2.9,4.3,70,0.00,,---,0.00,VWS V14.01,2014-01-03 03:30:00,
2014-01-02 22:35:00,16.2,8.1,27.99,ESE,112,2.5,3.4,70,0.00,,---,0.00,VWS V14.01,2014-01-03 03:35:00,
2014-01-02 22:40:00,16.2,7.8,27.99,NW,315,1.3,3.6,69,0.00,,---,0.00,VWS V14.01,2014-01-03 03:40:00,
2014-01-02 22:45:00,16.2,7.8,27.99,ENE,68,2.0,3.1,69,0.00,,---,0.00,VWS V14.01,2014-01-03 03:45:00,
2014-01-02 22:50:00,16.3,8.0,27.99,WSW,248,2.5,2.7,69,0.00,,---,0.00,VWS V14.01,2014-01-03 03:50:00,
2014-01-02 22:55:00,16.3,8.6,27.99,SSW,202,2.9,2.9,71,0.00,,---,0.00,VWS V14.01,2014-01-03 03:55:00,
2014-01-02 23:00:00,16.3,8.3,27.99,NNW,338,3.4,3.4,70,0.00,,---,0.00,VWS V14.01,2014-01-03 04:00:00,
2014-01-02 23:05:00,16.5,8.8,27.99,WSW,248,0.9,1.6,71,0.00,,---,0.00,VWS V14.01,2014-01-03 04:05:00,
2014-01-02 23:10:00,16.5,8.8,27.99,South,180,2.7,3.4,71,0.00,,---,0.00,VWS V14.01,2014-01-03 04:10:00,
2014-01-02 23:15:00,16.5,8.8,27.99,West,270,0.0,1.6,71,0.00,,---,0.00,VWS V14.01,2014-01-03 04:15:00,
2014-01-02 23:20:00,16.5,9.1,28.02,WNW,292,1.3,2.0,72,0.00,,---,0.00,VWS V14.01,2014-01-03 04:20:00,
2014-01-02 23:25:00,16.5,9.1,28.02,South,180,0.0,2.5,72,0.00,,---,0.00,VWS V14.01,2014-01-03 04:25:00,
2014-01-02 23:30:00,16.5,8.8,28.02,NE,45,1.3,3.4,71,0.00,,---,0.00,VWS V14.01,2014-01-03 04:30:00,
2014-01-02 23:35:00,16.3,8.3,27.99,SW,225,3.4,3.4,70,0.00,,---,0.00,VWS V14.01,2014-01-03 04:35:00,
2014-01-02 23:40:00,16.3,8.3,27.99,WSW,248,2.7,2.7,70,0.00,,---,0.00,VWS V14.01,2014-01-03 04:40:00,
2014-01-02 23:45:00,16.5,8.5,27.99,WSW,248,2.0,3.1,70,0.00,,---,0.00,VWS V14.01,2014-01-03 04:45:00,
2014-01-02 23:50:00,16.5,8.8,28.02,WNW,292,3.4,3.4,71,0.00,,---,0.00,VWS V14.01,2014-01-03 04:50:00,
2014-01-02 23:55:00,16.5,8.8,28.02,WSW,248,1.6,3.4,71,0.00,,---,0.00,VWS V14.01,2014-01-03 04:55:00,